OBJECT AK, 61768

Orbit data source: Space-Track

You're viewing an Uncataloged Satellite

Recently launched and/or uncataloged satellites may have evolving metadata. Metadata may include but not limited to: Owner, Maufacturer, Bus, Motor, and Mission.

OBJECT AK, 61768 is a satellite in SSO that was launched on Mon, 04 Nov 2024 UTC via a SOYUZ-2-1B launch vehicle from the Vostochny Cosmodrome (VOSTO). Unknown objects in Earth's orbit typically refer to objects detected orbiting the Earth but have not yet been identified or cataloged. These objects could be anything from previously untracked satellites, spent rocket stages, debris from satellite collisions, or even natural meteoroids temporarily captured by Earth's gravity.

Loading next visibility...
Identifier
61768, 2024-199AK
Orbit
SSO
Country
Flag of TBDTBD
Related business
Manufacturer
Lavochkin
Mission
Operational Amateur Science
Bus & Motor
Unknown
Mass
Unknown
Launch date (UTC)
2024-11-04 (10 months ago)
Launch vehicle
SOYUZ-2-1B
Launch site
Vostochny Cosmodrome (VOSTO)
Object type
Unknown
Shape & HBR
Box, 0.1 m
Radar Cross Section
0.035 m², Small (<0.1 m²)

Expand to show TLE details & history
Last TLE update: 15 hours ago

TLE from 15 hours ago
0 OBJECT AK
1 61768U 24199AK  25260.23913426  .00014176  00000-0  40263-3 0  9995
2 61768  97.3382 128.7223 0007084 182.9115 177.2089 15.36271138 92241
Epoch: 2025-09-17T05:44Z
TLE epoch observation values (Epoch: 2025-09-17T05:44:21.2Z)
Latitude
-0.00001°
Longitude
46.21603°
Altitude
465.099 km
Speed
7.631 km/s
True Right ascension
08h 34m 53s
True Declination
0° 00' 00"
Sunlit
Object was in daylight at epoch
Visualization orbit readout
Latitude
Unknown
Longitude
Unknown
Altitude
Unknown
Speed
Unknown
Apparent Right ascension
Unknown
Apparent Declination
Unknown
Sunlit
N/A
Visualization observer readout
Local Sidereal Time
13:07:33
Azimuth
Unknown
Elevation
Unknown
Doppler factor
Unknown
Orbital elements
Apogee altitude
458.929 km
Perigee altitude
449.249 km
Semi-major axis
6,832.226 km
Eccentricity
0.00071
Inclination
97.3382°
RAAN
128.7223°
Arg. of periapsis
182.9115°
True anomaly
177.21285°
Mean anomaly
177.2089°
Eccentric anomaly
177.21088°
Mean motion
3.84326 °/min
Orbital period
93.67 mins
BSTAR
0.00040263
Loading maneuver chart data...
Computing Atmospheric mass density...
Loading historical data...
Loading historical data...
Loading historical data...
Loading historical data...
Loading historical data...
Loading historical data...
Loading historical data...

Documentation

Showing up to 5 results
|